Weather History for KGEV - July, 2013

Change the Weather History Date:

Sunday, July 28, 2013

  Actual Average Record
Temperature  
Mean Temperature 68 °F -  
Max Temperature 76 °F 79 °F 87 °F (1966)
Min Temperature 61 °F 60 °F 50 °F (1983)
Cooling Degree Days 4    
Growing Degree Days 18 (Base 50)    
Moisture  
Dew Point 57 °F    
Average Humidity 75    
Maximum Humidity 94    
Minimum Humidity 41    
Precipitation  
Precipitation 0.05 in - - ()
Sea Level Pressure  
Sea Level Pressure 30.08 in    
Wind  
Wind Speed 2 mph (West)    
Max Wind Speed 14 mph    
Max Gust Speed 18 mph    
Visibility 6 miles    
Events Fog , Rain    
Averages and records for this station are not official NWS values.
T = Trace of Precipitation, MM = Missing Value Source: NWS Daily Summary

Daily Weather History Graph

Daily Weather History Graph

Search for Another Location

Airport or City:

Trip Planner

Search our weather history database for the weather conditions in past years. The results will help you decide how hot, cold, wet, or windy it might be!

Date:

Astronomy

Jul. 28, 2013 Rise Set
Actual Time 6:29 AM EDT 8:34 PM EDT
Civil Twilight 6:00 AM EDT 9:03 PM EDT
Nautical Twilight 5:25 AM EDT 9:38 PM EDT
Astronomical Twilight 4:47 AM EDT 10:16 PM EDT
Moon No Moon Rise 12:56 PM EDT (7/28)
Length of Visible Light 15h 03m
Length of Day
14h 05m
Waning Gibbous, 61% of the Moon is Illuminated
Jul 28
Waning Gibbous
Jul 29
Last Quarter
Aug 6
New
Aug 14
First Quarter
Aug 20
Full

Hourly Weather History & Observations

Time (EDT) Temp. Dew Point Humidity Pressure Visibility Wind Dir Wind Speed Gust Speed Precip Events Conditions
12:15 AM 63.0 °F 61.2 °F 94% 30.06 in 0.5 mi Calm Calm - N/A Rain Light Rain
12:35 AM 63.1 °F 61.3 °F 94% 30.05 in 0.5 mi Calm Calm - N/A Fog Fog
12:55 AM 62.8 °F 61.0 °F 94% 30.05 in 1.0 mi Calm Calm - N/A   Overcast
1:15 AM 62.8 °F 61.0 °F 94% 30.04 in 0.8 mi Calm Calm - N/A   Overcast
1:35 AM 62.6 °F 60.8 °F 94% 30.04 in 0.8 mi Calm Calm - N/A   Overcast
1:55 AM 62.6 °F 60.8 °F 94% 30.04 in 0.8 mi Calm Calm - N/A   Overcast
2:15 AM 62.6 °F 60.8 °F 94% 30.04 in 3.0 mi Calm Calm - N/A   Overcast
2:35 AM 62.8 °F 61.0 °F 94% 30.04 in 4.0 mi Calm Calm - N/A   Overcast
2:55 AM 63.1 °F 61.3 °F 94% 30.03 in 7.0 mi Calm Calm - N/A   Overcast
3:15 AM 63.0 °F 61.0 °F 93% 30.03 in 4.0 mi Calm Calm - N/A Rain Light Rain
3:35 AM 62.6 °F 60.8 °F 94% 30.03 in 0.5 mi Calm Calm - 0.02 in Rain Rain
3:55 AM 62.2 °F 60.4 °F 94% 30.03 in 0.2 mi Calm Calm - 0.02 in   Light Drizzle
4:15 AM 62.6 °F 60.8 °F 94% 30.03 in 2.5 mi Calm Calm - N/A   Drizzle
4:35 AM 62.1 °F 60.3 °F 94% 30.03 in 2.0 mi Calm Calm - N/A   Overcast
4:55 AM 61.9 °F 60.1 °F 94% 30.03 in 4.0 mi Calm Calm - N/A   Mostly Cloudy
5:15 AM 61.9 °F 60.1 °F 94% 30.03 in 3.0 mi Calm Calm - N/A   Mostly Cloudy
5:35 AM 61.7 °F 59.9 °F 94% 30.03 in 2.0 mi Calm Calm - N/A   Overcast
5:55 AM 61.7 °F 59.9 °F 94% 30.04 in 5.0 mi Calm Calm - N/A   Scattered Clouds
6:15 AM 61.7 °F 59.9 °F 94% 30.04 in 3.0 mi Calm Calm - N/A   Mostly Cloudy
6:35 AM 61.2 °F 59.4 °F 94% 30.04 in 0.5 mi Calm Calm - N/A Fog Fog
6:55 AM 61.5 °F 59.7 °F 94% 30.05 in 2.0 mi Calm Calm - N/A   Overcast
7:15 AM 61.5 °F 59.7 °F 94% 30.06 in 0.2 mi Calm Calm - N/A Fog Fog
7:35 AM 61.7 °F 59.9 °F 94% 30.06 in 0.2 mi Calm Calm - N/A Fog Fog
7:55 AM 61.7 °F 59.9 °F 94% 30.06 in 0.5 mi Calm Calm - N/A Rain Heavy Rain
8:15 AM 62.2 °F 60.4 °F 94% 30.07 in 1.8 mi Calm Calm - N/A   Overcast
8:35 AM 62.6 °F 60.8 °F 94% 30.08 in 2.5 mi Calm Calm - 0.02 in Rain Heavy Rain
8:55 AM 62.6 °F 60.8 °F 94% 30.08 in 2.5 mi Calm Calm - 0.03 in Rain Rain
9:15 AM 63.1 °F 61.2 °F 93% 30.08 in 5.0 mi Calm Calm - N/A   Overcast
9:35 AM 63.5 °F 61.2 °F 92% 30.08 in 4.0 mi Calm Calm - N/A Rain Rain
9:55 AM 62.8 °F 60.8 °F 93% 30.08 in 0.2 mi Calm Calm - N/A Fog Fog
10:15 AM 63.1 °F 61.2 °F 93% 30.08 in 0.8 mi Calm Calm - N/A   Overcast
10:35 AM 63.5 °F 61.7 °F 94% 30.09 in 4.0 mi Calm Calm - N/A   Overcast
10:55 AM 63.5 °F 61.7 °F 94% 30.09 in 4.0 mi Calm Calm - N/A   Overcast
11:15 AM 63.9 °F 61.9 °F 93% 30.09 in 1.8 mi Calm Calm - N/A   Overcast
11:35 AM 64.4 °F 62.1 °F 92% 30.09 in 4.0 mi Calm Calm - N/A   Overcast
11:55 AM 65.7 °F 61.3 °F 86% 30.09 in 7.0 mi Calm Calm - N/A   Overcast
12:15 PM 68.4 °F 61.3 °F 78% 30.09 in 10.0 mi West 4.6 mph - N/A   Overcast
12:35 PM 69.6 °F 60.4 °F 73% 30.09 in 10.0 mi West 3.5 mph - N/A   Overcast
12:55 PM 70.9 °F 57.7 °F 63% 30.09 in 10.0 mi Calm Calm - N/A   Overcast
1:15 PM 71.6 °F 56.8 °F 60% 30.09 in 10.0 mi West 10.4 mph - N/A   Overcast
1:35 PM 72.0 °F 56.3 °F 58% 30.09 in 10.0 mi SW 8.1 mph - N/A   Overcast
1:55 PM 73.2 °F 55.2 °F 53% 30.09 in 10.0 mi West 11.5 mph - N/A   Mostly Cloudy
2:15 PM 74.1 °F 55.2 °F 52% 30.09 in 10.0 mi WNW 4.6 mph - N/A   Scattered Clouds
2:35 PM 75.4 °F 53.6 °F 47% 30.08 in 10.0 mi West 10.4 mph 18.4 mph N/A   Mostly Cloudy
2:55 PM 75.4 °F 53.8 °F 47% 30.08 in 10.0 mi WSW 9.2 mph 17.3 mph N/A   Scattered Clouds
3:15 PM 74.7 °F 52.5 °F 46% 30.07 in 10.0 mi WSW 5.8 mph - N/A   Scattered Clouds
3:35 PM 75.7 °F 53.2 °F 45% 30.06 in 10.0 mi West 9.2 mph - N/A   Clear
3:55 PM - - N/A% 30.06 in 10.0 mi WSW 9.2 mph - N/A   Clear
4:15 PM 76.3 °F 50.7 °F 41% 30.06 in 10.0 mi West 11.5 mph - N/A   Clear
4:35 PM 76.1 °F 51.3 °F 42% 30.06 in 10.0 mi West 13.8 mph 18.4 mph N/A   Clear
4:55 PM 76.1 °F 50.7 °F 41% 30.06 in 10.0 mi WNW 11.5 mph 18.4 mph N/A   Clear
5:15 PM 75.9 °F 51.3 °F 42% 30.07 in 10.0 mi West 10.4 mph 16.1 mph N/A   Clear
5:35 PM 75.0 °F 52.3 °F 45% 30.07 in 10.0 mi West 13.8 mph - N/A   Scattered Clouds
5:55 PM 74.8 °F 52.7 °F 46% 30.08 in 10.0 mi WNW 10.4 mph - N/A   Scattered Clouds
6:15 PM 73.8 °F 52.3 °F 47% 30.08 in 10.0 mi West 12.7 mph 17.3 mph N/A   Scattered Clouds
6:35 PM 73.6 °F 52.5 °F 48% 30.08 in 10.0 mi West 5.8 mph - N/A   Scattered Clouds
6:55 PM 73.6 °F 52.5 °F 48% 30.08 in 10.0 mi West 6.9 mph - N/A   Scattered Clouds
7:15 PM 73.0 °F 52.9 °F 49% 30.08 in 10.0 mi West 11.5 mph - N/A   Clear
7:35 PM 72.3 °F 53.1 °F 51% 30.09 in 10.0 mi West 6.9 mph - N/A   Clear
7:55 PM 71.6 °F 53.4 °F 53% 30.09 in 10.0 mi WNW 6.9 mph - N/A   Clear
8:15 PM 70.7 °F 53.4 °F 54% 30.10 in 10.0 mi West 4.6 mph - N/A   Clear
8:35 PM 68.9 °F 53.8 °F 58% 30.11 in 10.0 mi SE 3.5 mph - N/A   Clear
8:55 PM 69.1 °F 53.4 °F 57% 30.11 in 10.0 mi West 4.6 mph - N/A   Clear
9:15 PM 68.9 °F 53.4 °F 58% 30.12 in 10.0 mi West 6.9 mph - N/A   Clear
9:35 PM 67.6 °F 53.8 °F 61% 30.13 in 10.0 mi WSW 3.5 mph - N/A   Clear
9:55 PM 67.5 °F 54.5 °F 63% 30.13 in 10.0 mi West 4.6 mph - N/A   Clear
10:15 PM 66.6 °F 54.5 °F 65% 30.14 in 10.0 mi West 4.6 mph - N/A   Clear
10:35 PM 64.8 °F 54.9 °F 70% 30.14 in 10.0 mi NW 3.5 mph - N/A   Clear
10:55 PM 65.5 °F 54.5 °F 68% 30.14 in 10.0 mi WNW 5.8 mph - N/A   Clear
11:15 PM 64.4 °F 54.5 °F 70% 30.14 in 10.0 mi NW 3.5 mph - N/A   Clear
11:35 PM 62.4 °F 54.5 °F 75% 30.14 in 10.0 mi Calm Calm - N/A   Clear
11:55 PM 62.4 °F 54.1 °F 74% 30.15 in 10.0 mi Calm Calm - N/A   Clear